Location: Campbell Lake
(32.1204°N, 97.6289°W)
Time: 01:03:43
(UTC+00:00)

ARIANE 6 FM1 Upper Stage - Pass Details

Date: 13 December 2025
Orbit: 522 x 610 km, 62.0° (Epoch: 16 January)

Event Time Altitude Azimuth Distance (km) Brightness Sun altitude
Rises 12:52:29 0° 218° (SW) 2,713 6.0 -6.6°
Reaches altitude 10° 12:54:44 10° 222° (SW) 1,808 5.1 -6.2°
Maximum altitude 12:58:45 60° 303° (WNW) 617 2.6 -5.4°
Drops below altitude 10° 13:02:41 10° 24° (NNE) 1,777 5.2 -4.7°
Sets 13:04:53 0° 28° (NNE) 2,661 6.2 -4.2°
